Starlink 34350

operational
NORAD ID: 64276 Int'l Des: 2025-120 Owner: SPXS Country: US Constellation: starlink
LEOCIRCULAR

About Starlink 34350

Description loading...

Live Position

Loading 3D Globe...

Upcoming Passes

Altitude History

Altitude vs Time

uPlot chart will show altitude changes over time

Two-Line Element Set

1 64276U 25120W 25261.03125292 .00029844 00000-0 10149-2 0 9999
2 64276 53.1596 198.5105 0002122 96.2209 263.9034 15.30224662 17488
Epoch: Sep 18, 2025 • Age: 24 hours

Current Status

Altitude 479.5 km
Velocity 7.63 km/s
Sub-Earth Point 50.31°N, 109.15°W
Launch Date Jun 4, 2025
Age 0.2 years
Type internet

Technical Details

Classification Payload
Mass 575.00 kg
Dry Mass 530.00 kg
Total Mass 575.00 kg
Length 0.30 m
Diameter 4.10 m
Span 29.00 m
Shape Box + pan
Manufacturer SPXS
Bus Type Starlink V2MO
Phase Status In Orbit
Owner/State SPXS/US

Large Constellations

Loading constellations...